KI5UDF Weather Reports


Display with metric or nautical units.
time (UTC)temp
F
wind
direction
speed
MPH
gust
MPH
rain 1hr
in
rain 24hr
in
rain mn
in
humidity
%
barometer
mb
20260506044029 49 36 9.0 17.0 0.00 0.00 0.00 80 1012.1
20260506043529 49 28 9.0 20.0 0.00 0.00 0.00 80 1012.2
20260506043042 49 24 12.0 20.0 0.00 0.00 0.00 80 1012.0
20260506042529 49 34 7.0 20.0 0.00 0.00 0.00 81 1012.2
20260506042029 49 46 11.0 20.0 0.00 0.00 0.00 81 1012.3
20260506041540 49 30 10.0 20.0 0.00 0.00 0.00 81 1012.2
20260506041029 49 13 9.0 17.0 0.00 0.00 0.00 81 1012.2
20260506040527 49 55 9.0 19.0 0.00 0.00 0.00 81 1012.4
20260506040040 49 38 9.0 19.0 0.00 0.00 0.00 81 1012.3
20260506035528 49 43 10.0 19.0 0.00 0.00 0.00 82 1012.0
20260506035028 49 346 8.0 14.0 0.00 0.00 0.00 82 1012.0
20260506034541 49 38 7.0 15.0 0.00 0.00 0.00 82 1012.0
20260506034028 49 43 7.0 16.0 0.00 0.00 0.00 82 1012.0
20260506033531 49 26 10.0 16.0 0.00 0.00 0.00 81 1012.0
20260506033044 49 34 9.0 16.0 0.00 0.00 0.00 81 1012.0
20260506032528 49 5 9.0 16.0 0.00 0.00 0.00 81 1011.9
20260506032027 49 9 10.0 17.0 0.00 0.00 0.00 80 1011.8
20260506031541 49 49 9.0 20.0 0.00 0.00 0.00 80 1011.8
20260506031032 49 27 11.0 20.0 0.00 0.00 0.00 80 1011.4
20260506030529 49 45 6.0 17.0 0.00 0.00 0.00 80 1011.3
20260506030039 49 25 10.0 19.0 0.00 0.00 0.00 80 1011.4
20260506025532 49 41 11.0 19.0 0.00 0.00 0.00 79 1011.4
20260506025027 49 44 10.0 18.0 0.00 0.00 0.00 79 1011.5
20260506024547 49 5 8.0 18.0 0.00 0.00 0.00 79 1011.3
20260506024029 49 17 11.0 18.0 0.00 0.00 0.00 79 1011.1
20260506023527 49 31 11.0 22.0 0.00 0.00 0.00 79 1010.9
20260506023038 49 22 12.0 22.0 0.00 0.00 0.00 79 1010.7
20260506022532 50 350 13.0 20.0 0.00 0.00 0.00 80 1010.7
20260506022027 50 42 9.0 15.0 0.00 0.00 0.00 80 1010.7
20260506021540 50 32 8.0 18.0 0.00 0.00 0.00 80 1010.9
20260506021030 50 19 9.0 19.0 0.00 0.00 0.00 80 1010.6
20260506020529 50 20 12.0 19.0 0.00 0.00 0.00 80 1010.5
20260506020040 50 30 11.0 22.0 0.00 0.00 0.00 79 1010.5
20260506015528 50 22 13.0 22.0 0.00 0.00 0.00 79 1010.6
20260506015030 50 36 13.0 21.0 0.00 0.00 0.00 79 1010.5
20260506014538 50 341 13.0 21.0 0.00 0.00 0.00 79 1010.2
20260506014027 50 23 12.0 20.0 0.00 0.00 0.00 79 1010.3
20260506013527 50 26 14.0 20.0 0.00 0.00 0.00 79 1010.5
20260506013038 50 352 10.0 19.0 0.00 0.00 0.00 78 1010.4
20260506012527 50 35 8.0 19.0 0.00 0.00 0.00 78 1010.3
20260506012028 50 31 11.0 22.0 0.00 0.00 0.00 78 1010.1
20260506011602 50 38 12.0 22.0 0.00 0.00 0.00 77 1010.1
20260506011027 51 12 13.0 22.0 0.00 0.00 0.00 76 1009.9
20260506010530 51 21 9.0 17.0 0.00 0.00 0.00 76 1010.0
20260506010041 51 19 9.0 17.0 0.00 0.00 0.00 76 1009.9
20260506005529 51 28 10.0 17.0 0.00 0.00 0.00 75 1009.7
20260506005029 51 36 10.0 17.0 0.00 0.00 0.00 75 1009.7
20260506004556 51 5 9.0 17.0 0.00 0.00 0.00 75 1009.8
20260506004028 51 344 10.0 19.0 0.00 0.00 0.00 75 1009.4
20260506003530 51 352 11.0 19.0 0.00 0.00 0.00 75 1009.2
20260506003038 51 46 10.0 18.0 0.00 0.00 0.00 75 1009.1
20260506002530 52 344 10.0 20.0 0.00 0.00 0.00 75 1009.2
20260506002031 52 25 11.0 20.0 0.00 0.00 0.00 75 1009.1
20260506001545 52 38 9.0 17.0 0.00 0.00 0.00 75 1009.3
20260506001030 52 330 9.0 20.0 0.00 0.00 0.00 76 1009.1
20260506000529 52 13 10.0 20.0 0.00 0.00 0.00 76 1009.0
20260506000110 52 33 13.0 20.0 0.00 0.00 0.00 76 1008.9
20260505235529 52 337 11.0 17.0 0.00 0.00 0.00 75 1009.0
20260505235030 52 14 9.0 17.0 0.00 0.00 0.00 76 1009.2
20260505234546 52 352 9.0 17.0 0.00 0.00 0.00 76 1009.1
20260505234031 53 360 10.0 17.0 0.00 0.00 0.00 75 1008.9
20260505233532 53 22 10.0 17.0 0.00 0.00 0.00 75 1008.9
20260505233038 53 318 9.0 17.0 0.00 0.00 0.00 76 1008.8
20260505232529 53 15 8.0 19.0 0.00 0.00 0.00 75 1009.0
20260505232029 53 360 10.0 19.0 0.00 0.00 0.00 75 1009.1
20260505231538 53 340 12.0 19.0 0.00 0.00 0.00 75 1008.8
20260505231031 53 16 10.0 17.0 0.00 0.00 0.00 75 1009.1
20260505230530 53 19 9.0 17.0 0.00 0.00 0.00 75 1008.8
20260505230100 53 21 8.0 17.0 0.00 0.00 0.00 75 1008.9
20260505225530 53 15 9.0 18.0 0.00 0.00 0.00 75 1008.8
20260505225030 53 34 10.0 18.0 0.00 0.00 0.00 75 1009.0
20260505224542 53 23 8.0 18.0 0.00 0.00 0.00 76 1008.7
20260505224030 53 30 11.0 18.0 0.00 0.00 0.00 75 1008.7
20260505223529 53 28 10.0 18.0 0.00 0.00 0.00 76 1008.6
20260505223039 53 20 12.0 18.0 0.00 0.00 0.00 75 1008.8
20260505222530 54 25 10.0 19.0 0.00 0.00 0.00 75 1008.9
20260505222029 54 29 11.0 19.0 0.00 0.00 0.00 75 1008.8
20260505221538 54 360 9.0 19.0 0.00 0.00 0.00 75 1008.7
20260505221030 54 300 11.0 19.0 0.00 0.00 0.00 74 1008.6
20260505220530 54 346 10.0 19.0 0.00 0.00 0.00 74 1008.5
20260505220045 54 360 10.0 19.0 0.00 0.00 0.00 74 1008.5
20260505215532 55 360 10.0 19.0 0.00 0.00 0.00 75 1008.2
20260505215028 55 24 10.0 17.0 0.00 0.00 0.00 75 1007.9
20260505214540 55 31 10.0 17.0 0.00 0.00 0.00 75 1007.7
20260505214027 55 18 10.0 16.0 0.00 0.00 0.00 75 1007.8
20260505213527 54 30 9.0 16.0 0.00 0.00 0.00 76 1007.8
20260505213040 54 352 10.0 16.0 0.00 0.00 0.00 77 1007.9
20260505212527 54 323 8.0 16.0 0.00 0.00 0.00 77 1008.1
20260505212027 54 41 10.0 16.0 0.00 0.00 0.00 77 1007.9
20260505211544 54 18 9.0 19.0 0.00 0.00 0.00 77 1008.1
20260505211027 54 5 10.0 19.0 0.00 0.00 0.00 77 1008.3
20260505210528 54 9 12.0 19.0 0.00 0.00 0.00 78 1007.6
20260505210045 54 336 7.0 20.0 0.00 0.00 0.00 79 1007.5
20260505205530 54 336 11.0 20.0 0.00 0.00 0.00 78 1007.6
20260505205030 54 355 12.0 23.0 0.00 0.00 0.00 78 1007.5
20260505204549 55 23 13.0 23.0 0.00 0.00 0.00 79 1007.5
20260505204027 55 27 13.0 23.0 0.00 0.00 0.00 79 1007.5
20260505203528 55 23 10.0 21.0 0.00 0.00 0.00 79 1007.3
20260505203053 55 5 12.0 21.0 0.00 0.00 0.00 79 1007.2
20260505202527 55 341 12.0 23.0 0.00 0.00 0.00 79 1007.1
20260505202027 55 352 12.0 23.0 0.00 0.00 0.00 79 1007.3
20260505201546 55 15 11.0 21.0 0.00 0.00 0.00 79 1007.6
20260505201029 56 319 11.0 21.0 0.00 0.00 0.00 78 1007.8
20260505200531 56 51 9.0 19.0 0.00 0.00 0.00 78 1007.5
20260505200038 56 323 10.0 19.0 0.00 0.00 0.00 78 1007.3
20260505195526 56 330 10.0 17.0 0.00 0.00 0.00 78 1007.4
20260505195027 56 339 9.0 18.0 0.00 0.00 0.00 78 1007.4
20260505194552 57 360 12.0 22.0 0.00 0.00 0.00 77 1007.0
20260505194028 57 34 10.0 23.0 0.00 0.00 0.00 77 1006.8
20260505193527 57 20 12.0 23.0 0.00 0.00 0.00 77 1006.7
20260505193038 57 345 14.0 23.0 0.00 0.00 0.00 77 1006.6
20260505192527 57 360 10.0 19.0 0.00 0.00 0.00 77 1006.6
20260505192027 57 13 11.0 19.0 0.00 0.00 0.00 78 1006.9
20260505191552 57 352 11.0 19.0 0.00 0.00 0.00 78 1007.0
20260505191028 57 355 10.0 22.0 0.00 0.00 0.00 78 1006.9
20260505190531 57 333 9.0 22.0 0.00 0.00 0.00 78 1006.8
20260505190043 57 20 13.0 23.0 0.00 0.00 0.00 78 1006.7
20260505185527 57 342 13.0 23.0 0.00 0.00 0.00 79 1006.3
20260505185029 57 5 13.0 23.0 0.00 0.00 0.00 78 1006.1
20260505184540 57 5 12.0 23.0 0.00 0.00 0.00 79 1006.5
20260505184029 58 335 12.0 21.0 0.00 0.00 0.00 78 1006.6
20260505183529 58 337 13.0 20.0 0.00 0.00 0.00 78 1006.7
20260505183040 58 67 9.0 19.0 0.00 0.00 0.00 79 1006.7
20260505182527 58 338 11.0 19.0 0.00 0.00 0.00 79 1006.5
20260505182027 58 12 11.0 20.0 0.00 0.00 0.00 80 1006.4
20260505181539 58 360 12.0 20.0 0.00 0.00 0.00 79 1006.4
20260505181028 58 11 11.0 21.0 0.00 0.00 0.00 79 1006.2
20260505180529 58 343 9.0 21.0 0.00 0.00 0.00 79 1006.0
20260505180046 58 325 11.0 22.0 0.00 0.00 0.00 79 1006.1
20260505175527 58 311 10.0 22.0 0.00 0.00 0.00 81 1005.9
20260505175027 59 348 11.0 20.0 0.00 0.00 0.00 81 1005.8
20260505174541 59 343 12.0 23.0 0.00 0.00 0.00 81 1005.7
20260505174029 59 360 14.0 23.0 0.00 0.00 0.00 81 1005.6
20260505173531 59 347 14.0 23.0 0.00 0.00 0.00 80 1005.6
20260505173307 59 360 13.0 22.0 0.00 0.00 0.00 79 1005.5
20260505172529 60 360 11.0 20.0 0.00 0.00 0.00 79 1005.7
20260505172027 60 5 10.0 20.0 0.00 0.00 0.00 80 1005.7
20260505171556 60 317 10.0 23.0 0.00 0.00 0.00 79 1005.6
20260505171027 60 321 11.0 24.0 0.00 0.00 0.00 79 1005.5
20260505170527 60 344 14.0 24.0 0.00 0.00 0.00 78 1005.3
20260505170037 61 355 11.0 23.0 0.00 0.00 0.00 78 1005.1
20260505165527 61 26 14.0 25.0 0.00 0.00 0.00 77 1004.8
20260505165027 61 319 12.0 25.0 0.00 0.00 0.00 78 1004.8
20260505164542 62 298 15.0 25.0 0.00 0.00 0.00 77 1004.7
20260505164027 62 355 15.0 25.0 0.00 0.00 0.00 77 1004.5
20260505163527 63 315 13.0 25.0 0.00 0.00 0.00 77 1004.2
20260505163041 64 313 12.0 26.0 0.00 0.00 0.00 78 1004.1
20260505162526 64 303 15.0 26.0 0.00 0.00 0.00 77 1004.0
20260505162028 65 309 15.0 23.0 0.00 0.00 0.00 76 1004.0
20260505161538 66 28 15.0 23.0 0.00 0.00 0.00 76 1003.7
20260505161030 66 309 13.0 25.0 0.00 0.00 0.00 76 1003.5
20260505160529 67 332 12.0 27.0 0.00 0.00 0.00 75 1003.3
20260505153044 73 253 3.0 6.0 0.00 0.00 0.00 71 1002.0
20260505152527 73 279 2.0 7.0 0.00 0.00 0.00 71 1002.1
20260505152030 73 238 3.0 7.0 0.00 0.00 0.00 72 1001.9
20260505151540 73 249 2.0 5.0 0.00 0.00 0.00 72 1001.9
20260505151030 73 303 1.0 5.0 0.00 0.00 0.00 71 1001.9
20260505150530 73 288 1.0 3.0 0.00 0.00 0.00 72 1001.9
20260505140528 72 248 4.0 8.0 0.00 0.00 0.00 74 1001.3
20260505125030 70 229 4.0 12.0 0.00 0.00 0.00 78 1000.6
20260505124559 70 175 4.0 12.0 0.00 0.00 0.00 78 1000.5
20260505124027 70 200 6.0 13.0 0.00 0.00 0.00 78 1000.5
20260505123529 70 206 6.0 13.0 0.00 0.00 0.00 78 1000.4
20260505123100 70 173 7.0 15.0 0.00 0.00 0.00 79 1000.3
20260505122529 70 220 8.0 15.0 0.00 0.00 0.00 79 1000.1
20260505122030 70 206 9.0 19.0 0.00 0.00 0.00 79 999.9
20260505121610 70 202 10.0 19.0 0.00 0.00 0.00 79 999.7
20260505121030 70 165 11.0 19.0 0.00 0.00 0.00 79 999.6
20260505120526 70 165 11.0 22.0 0.00 0.00 0.00 78 999.5
20260505120038 70 198 11.0 22.0 0.00 0.00 0.00 78 999.5
20260505115530 70 184 13.0 21.0 0.00 0.00 0.00 78 999.5
20260505115029 70 200 10.0 22.0 0.00 0.00 0.00 78 999.5
20260505114538 70 173 11.0 22.0 0.00 0.00 0.00 78 999.5
20260505114029 70 225 12.0 19.0 0.00 0.00 0.00 78 999.3
20260505113526 70 219 11.0 24.0 0.00 0.00 0.00 78 999.2
20260505113046 70 190 14.0 24.0 0.00 0.00 0.00 77 999.1
20260505112530 70 215 12.0 19.0 0.00 0.00 0.00 77 999.2
20260505112027 70 191 14.0 19.0 0.00 0.00 0.00 77 999.1
20260505111545 70 208 11.0 19.0 0.00 0.00 0.00 77 999.0
20260505111027 70 184 12.0 19.0 0.00 0.00 0.00 77 999.0
20260505110530 71 205 10.0 19.0 0.00 0.00 0.00 76 999.1
20260505102030 71 203 12.0 20.0 0.00 0.00 0.00 76 999.1
20260505101543 71 183 10.0 20.0 0.00 0.00 0.00 76 999.0
20260505101030 71 178 11.0 18.0 0.00 0.00 0.00 76 999.0
20260505100527 71 198 12.0 20.0 0.00 0.00 0.00 76 998.9
20260505100054 71 200 12.0 21.0 0.00 0.00 0.00 76 998.9
20260505095526 71 220 11.0 21.0 0.00 0.00 0.00 76 998.8
20260505095029 71 200 11.0 22.0 0.00 0.00 0.00 76 998.9
20260505094542 71 197 12.0 25.0 0.00 0.00 0.00 76 998.9
20260505094027 71 186 12.0 25.0 0.00 0.00 0.00 75 998.9
20260505093529 72 197 14.0 22.0 0.00 0.00 0.00 75 998.9
20260505093037 72 165 12.0 22.0 0.00 0.00 0.00 75 999.0
20260505092528 72 219 14.0 22.0 0.00 0.00 0.00 75 999.0
20260505092027 72 180 13.0 22.0 0.00 0.00 0.00 75 999.1
20260505091607 72 175 14.0 22.0 0.00 0.00 0.00 75 999.1
20260505091027 72 202 12.0 22.0 0.00 0.00 0.00 75 999.1
20260505090529 72 194 13.0 22.0 0.00 0.00 0.00 74 999.2
20260505090053 72 192 12.0 24.0 0.00 0.00 0.00 74 999.2
20260505085527 72 197 14.0 24.0 0.00 0.00 0.00 74 999.3
20260505085032 72 189 13.0 24.0 0.00 0.00 0.00 74 999.2
20260505084543 72 196 12.0 24.0 0.00 0.00 0.00 74 999.3
20260505084029 72 202 12.0 23.0 0.00 0.00 0.00 74 999.2
20260505083526 72 173 13.0 20.0 0.00 0.00 0.00 74 999.3
20260505083048 72 196 11.0 23.0 0.00 0.00 0.00 74 999.3
20260505082532 72 193 14.0 27.0 0.00 0.00 0.00 74 999.5
20260505082027 72 205 13.0 27.0 0.00 0.00 0.00 74 999.7
20260505081543 72 206 13.0 23.0 0.00 0.00 0.00 74 999.6
20260505081027 72 190 12.0 23.0 0.00 0.00 0.00 74 999.6
20260505080533 73 212 11.0 23.0 0.00 0.00 0.00 74 999.6
20260505080047 73 208 11.0 24.0 0.00 0.00 0.00 74 999.7
20260505075531 73 175 13.0 26.0 0.00 0.00 0.00 73 999.7
20260505075031 73 186 16.0 26.0 0.00 0.00 0.00 73 999.7
20260505074541 73 171 13.0 25.0 0.00 0.00 0.00 73 999.7
20260505074030 73 186 16.0 25.0 0.00 0.00 0.00 73 999.8
20260505073529 73 194 12.0 23.0 0.00 0.00 0.00 73 999.8
20260505073047 73 173 13.0 23.0 0.00 0.00 0.00 73 999.9
20260505072528 73 208 12.0 22.0 0.00 0.00 0.00 73 1000.0
20260505072030 73 201 13.0 22.0 0.00 0.00 0.00 73 1000.1
20260505071545 73 168 12.0 28.0 0.00 0.00 0.00 73 1000.2
20260505071027 73 205 13.0 28.0 0.00 0.00 0.00 74 1000.2
20260505070530 72 173 14.0 26.0 0.00 0.00 0.00 74 1000.3
20260505070042 72 206 15.0 26.0 0.00 0.00 0.00 74 1000.3
20260505065526 72 185 13.0 28.0 0.00 0.00 0.00 75 1000.4
20260505065026 72 169 15.0 28.0 0.00 0.00 0.00 74 1000.4
20260505064537 72 163 13.0 27.0 0.00 0.00 0.00 75 1000.4
20260505064027 72 182 13.0 27.0 0.00 0.00 0.00 75 1000.4
20260505063527 72 219 14.0 29.0 0.00 0.00 0.00 74 1000.4
20260505063046 72 154 15.0 29.0 0.00 0.00 0.00 74 1000.5
20260505062526 72 189 15.0 29.0 0.00 0.00 0.00 74 1000.5
20260505062031 72 180 17.0 29.0 0.00 0.00 0.00 74 1000.7
20260505061545 72 188 13.0 29.0 0.00 0.00 0.00 74 1000.7
20260505061031 72 175 15.0 26.0 0.00 0.00 0.00 74 1000.8
20260505060526 72 212 14.0 22.0 0.00 0.00 0.00 74 1000.9
20260505060042 72 165 14.0 22.0 0.00 0.00 0.00 74 1000.9
20260505055528 72 186 14.0 22.0 0.00 0.00 0.00 74 1000.9
20260505055026 72 186 12.0 23.0 0.00 0.00 0.00 74 1001.1
20260505054603 72 160 15.0 23.0 0.00 0.00 0.00 74 1001.1
20260505054028 72 148 11.0 24.0 0.00 0.00 0.00 74 1001.1
20260505053528 72 169 13.0 24.0 0.00 0.00 0.00 74 1001.2
20260505053046 72 185 12.0 23.0 0.00 0.00 0.00 74 1001.1
20260505052527 72 159 13.0 26.0 0.00 0.00 0.00 73 1001.2
20260505052028 72 198 12.0 26.0 0.00 0.00 0.00 73 1001.2
20260505051546 72 178 11.0 20.0 0.00 0.00 0.00 74 1001.3
20260505051028 72 191 13.0 22.0 0.00 0.00 0.00 74 1001.2
20260505050528 72 168 13.0 22.0 0.00 0.00 0.00 73 1001.1